This is the latest recevied weather packets stored in our database for station/object ES0THZ-13. If no packets are shown the sender has not sent any weather packets the latest 10 day(s).
| Time | Temp. | Humidity | Pressure | Rain* | Wind** | Luminosity | Snow |
|---|---|---|---|---|---|---|---|
| 1777664516 | 7.78° C | 73% | 1013.6 hPa | - | - | - | - |
| 1777663541 | 8.33° C | 72% | 1013.8 hPa | - | - | - | - |
| 1777662411 | 8.33° C | 71% | 1013.5 hPa | - | - | - | - |
| 1777661326 | 8.33° C | 70% | 1014.1 hPa | - | - | - | - |
| 1777660211 | 8.89° C | 69% | 1014 hPa | - | - | - | - |
| 1777659141 | 9.44° C | 67% | 1013.8 hPa | - | - | - | - |
| 1777658066 | 10.56° C | 65% | 1013.6 hPa | - | - | - | - |
| 1777657011 | 11.67° C | 64% | 1014 hPa | - | - | - | - |
| 1777655886 | 12.78° C | 62% | 1014 hPa | - | - | - | - |
| 1777654881 | 14.44° C | 61% | 1013.4 hPa | - | - | - | - |
| 1777653756 | 16.11° C | 59% | 1014.7 hPa | - | - | - | - |
| 1777652746 | 16.11° C | 58% | 1014.7 hPa | - | - | - | - |
| 1777651651 | 17.22° C | 57% | 1014.4 hPa | - | - | - | - |
| 1777650511 | 18.33° C | 56% | 1014.5 hPa | - | - | - | - |
| 1777649466 | 18.89° C | 56% | 1014.7 hPa | - | - | - | - |
| 1777648421 | 20° C | 55% | 1015.1 hPa | - | - | - | - |
| 1777647281 | 20.56° C | 55% | 1014.6 hPa | - | - | - | - |
| 1777646256 | 21.67° C | 55% | 1014.6 hPa | - | - | - | - |
| 1777645151 | 21.11° C | 55% | 1015.5 hPa | - | - | - | - |
| 1777644091 | 21.11° C | 55% | 1015.4 hPa | - | - | - | - |
| 1777642966 | 20.56° C | 56% | 1016 hPa | - | - | - | - |
| 1777641851 | 20.56° C | 56% | 1015.8 hPa | - | - | - | - |
| 1777640866 | 20° C | 56% | 1016.2 hPa | - | - | - | - |
| 1777639851 | 21.11° C | 57% | 1015.3 hPa | - | - | - | - |
| 1777638706 | 21.11° C | 56% | 1016.4 hPa | - | - | - | - |
* Rain since midnight (hover to see other rain measurements)
** Current wind speed in m/s (hover to see current wind gust speed)